Вернуться в каталог

STARLINK-37345

АктивенСвязьVLEO
NORAD 69156·PAYLOAD·🇺🇸 United States

Запущен May 21, 2026 с Cape Canaveral Space Force Station

Loading…

Ближайшие Пролёты (ближайшие 24 часа)

TLE

СвежийSource: CelesTrak SupGP

Эпоха: Sep 14, 2026, 22:53 UTC

1 69156C 26111J   26257.95395833  .00044298  00000+0  13089-2 0  2571
2 69156  53.1584  91.8039 0001186  77.6653 332.7279 15.34366506    18

Отслеживайте STARLINK-37345 в реальном времени с AllMySat

Download on the App Store